Location: Black Swamp Observatory
(41.3920°N, 84.1250°W)
Time: 12:12:11
(UTC-05:00)

ISS - Pass Details

Date: 04 December 2021
Orbit: 413 x 422 km, 51.6° (Epoch: 19 January)

Event Time Altitude Azimuth Distance (km) Brightness Sun altitude
Rises 19:39:37 0° 301° (WNW) 2,379 0.8 -27.9°
Reaches altitude 10° 19:41:46 10° 296° (WNW) 1,508 -0.2 -28.3°
Enters shadow 19:42:44 17° 290° (WNW) 1,132 -0.9 -28.5°
